Time,TemperatureF,DewpointF,PressureIn,WindDirection,WindDirectionDegrees,WindSpeedMPH,WindSpeedGustMPH,Humidity,HourlyPrecipIn,Conditions,Clouds,dailyrainin,SoftwareType,DateUTC
2015-07-02 00:03:00,53.9,45.5,30.14,West,270,11.0,11.0,73,0.00,,,0.00,WUHU21623XXSP,2015-07-01 14:03:00,
2015-07-02 00:08:00,53.9,45.5,30.13,WNW,292,16.0,16.0,73,0.00,,,0.00,WUHU21623XXSP,2015-07-01 14:08:00,
2015-07-02 00:13:00,53.9,45.5,30.14,WNW,292,6.0,16.0,73,0.00,,,0.00,WUHU21623XXSP,2015-07-01 14:13:00,
2015-07-02 00:18:00,53.7,45.4,30.13,NW,315,9.0,16.0,73,0.00,,,0.00,WUHU21623XXSP,2015-07-01 14:18:00,
2015-07-02 00:23:00,53.5,45.5,30.12,WNW,292,10.0,10.0,74,0.00,,,0.00,WUHU21623XXSP,2015-07-01 14:23:00,
2015-07-02 00:28:00,53.5,45.5,30.12,NW,325,7.0,10.0,74,0.00,,,0.00,WUHU21623XXSP,2015-07-01 14:28:00,
2015-07-02 00:33:00,53.5,45.5,30.12,NW,315,5.0,10.0,74,0.00,,,0.00,WUHU21623XXSP,2015-07-01 14:33:00,
2015-07-02 00:39:00,53.5,45.5,30.12,WNW,292,9.0,9.0,74,0.00,,,0.00,WUHU21623XXSP,2015-07-01 14:39:00,
2015-07-02 00:43:00,53.5,45.5,30.11,NNW,337,4.0,9.0,74,0.00,,,0.00,WUHU21623XXSP,2015-07-01 14:43:00,
2015-07-02 00:48:00,53.5,45.5,30.11,WNW,292,3.0,9.0,74,0.00,,,0.00,WUHU21623XXSP,2015-07-01 14:48:00,
2015-07-02 00:53:00,53.5,45.5,30.11,WNW,292,9.0,9.0,74,0.00,,,0.00,WUHU21623XXSP,2015-07-01 14:53:00,
2015-07-02 00:58:00,53.6,45.6,30.11,WNW,292,7.0,9.0,74,0.00,,,0.00,WUHU21623XXSP,2015-07-01 14:58:00,
2015-07-02 01:03:00,53.6,45.6,30.11,SW,225,4.0,9.0,74,0.00,,,0.00,WUHU21623XXSP,2015-07-01 15:03:00,
2015-07-02 01:09:00,53.7,45.7,30.11,WNW,292,3.0,7.0,74,0.00,,,0.00,WUHU21623XXSP,2015-07-01 15:09:00,
2015-07-02 01:14:00,53.7,45.7,30.11,WNW,292,3.0,4.0,74,0.00,,,0.00,WUHU21623XXSP,2015-07-01 15:14:00,
2015-07-02 01:19:00,53.9,45.5,30.10,North,-9999,-999.9,0.0,73,0.00,,,0.00,WUHU21623XXSP,2015-07-01 15:19:00,
2015-07-02 01:24:00,54.1,45.4,30.10,North,-9999,-999.9,0.0,72,0.00,,,0.00,WUHU21623XXSP,2015-07-01 15:24:00,
2015-07-02 01:29:00,54.3,45.5,30.10,North,-9999,-999.9,0.0,72,0.00,,,0.00,WUHU21623XXSP,2015-07-01 15:29:00,
2015-07-02 01:34:00,54.3,45.5,30.09,North,-9999,-999.9,0.0,72,0.00,,,0.00,WUHU21623XXSP,2015-07-01 15:34:00,
2015-07-02 01:39:00,54.5,45.7,30.09,North,-9999,-999.9,0.0,72,0.00,,,0.00,WUHU21623XXSP,2015-07-01 15:39:00,
2015-07-02 01:44:00,54.4,45.7,30.09,NW,305,8.0,15.0,72,0.00,,,0.00,WUHU21623XXSP,2015-07-01 15:44:00,
2015-07-02 01:49:00,54.4,45.7,30.09,WNW,292,11.0,15.0,72,0.00,,,0.00,WUHU21623XXSP,2015-07-01 15:49:00,
2015-07-02 01:54:00,54.2,45.9,30.09,WNW,296,9.0,11.0,73,0.00,,,0.00,WUHU21623XXSP,2015-07-01 15:54:00,
2015-07-02 01:59:00,54.0,46.0,30.09,West,280,6.0,11.0,74,0.00,,,0.00,WUHU21623XXSP,2015-07-01 15:59:00,
2015-07-02 02:04:00,53.8,46.2,30.10,WNW,292,11.0,11.0,75,0.00,,,0.00,WUHU21623XXSP,2015-07-01 16:04:00,
2015-07-02 02:09:00,53.6,46.0,30.09,WNW,292,11.0,11.0,75,0.00,,,0.00,WUHU21623XXSP,2015-07-01 16:09:00,
2015-07-02 02:14:00,53.5,46.2,30.10,North,-9999,-999.9,0.0,76,0.00,,,0.00,WUHU21623XXSP,2015-07-01 16:14:00,
2015-07-02 02:19:00,53.3,46.3,30.10,North,-9999,-999.9,0.0,77,0.00,,,0.00,WUHU21623XXSP,2015-07-01 16:19:00,
2015-07-02 02:24:00,53.3,46.3,30.11,North,-9999,-999.9,0.0,77,0.00,,,0.00,WUHU21623XXSP,2015-07-01 16:24:00,
2015-07-02 02:29:00,53.6,46.3,30.11,North,-9999,-999.9,0.0,76,0.00,,,0.00,WUHU21623XXSP,2015-07-01 16:29:00,
2015-07-02 02:34:00,53.6,46.3,30.10,North,-9999,-999.9,0.0,76,0.00,,,0.00,WUHU21623XXSP,2015-07-01 16:34:00,
2015-07-02 02:39:00,53.8,46.5,30.11,North,-9999,-999.9,0.0,76,0.00,,,0.00,WUHU21623XXSP,2015-07-01 16:39:00,
2015-07-02 02:44:00,53.8,46.5,30.10,North,-9999,-999.9,0.0,76,0.00,,,0.00,WUHU21623XXSP,2015-07-01 16:44:00,
2015-07-02 02:49:00,54.0,46.3,30.11,North,-9999,-999.9,0.0,75,0.00,,,0.00,WUHU21623XXSP,2015-07-01 16:49:00,
2015-07-02 02:54:00,54.0,46.3,30.10,North,-9999,-999.9,0.0,75,0.00,,,0.00,WUHU21623XXSP,2015-07-01 16:54:00,
2015-07-02 02:59:00,54.2,46.5,30.10,North,-9999,-999.9,0.0,75,0.00,,,0.00,WUHU21623XXSP,2015-07-01 16:59:00,
2015-07-02 03:04:00,54.2,46.5,30.10,North,-9999,-999.9,0.0,75,0.00,,,0.00,WUHU21623XXSP,2015-07-01 17:04:00,
2015-07-02 03:09:00,54.2,46.5,30.10,North,-9999,-999.9,0.0,75,0.00,,,0.00,WUHU21623XXSP,2015-07-01 17:09:00,
2015-07-02 03:14:00,54.2,46.5,30.10,North,-9999,-999.9,0.0,75,0.00,,,0.00,WUHU21623XXSP,2015-07-01 17:14:00,
2015-07-02 03:19:00,54.0,46.6,30.10,North,-9999,-999.9,0.0,76,0.00,,,0.00,WUHU21623XXSP,2015-07-01 17:19:00,
2015-07-02 03:24:00,53.6,47.3,30.11,North,-9999,-999.9,0.0,79,0.00,,,0.00,WUHU21623XXSP,2015-07-01 17:24:00,
2015-07-02 03:29:00,52.9,46.6,30.11,North,-9999,-999.9,0.0,79,0.00,,,0.00,WUHU21623XXSP,2015-07-01 17:29:00,
2015-07-02 03:34:00,52.4,47.4,30.11,North,-9999,-999.9,0.0,83,0.00,,,0.00,WUHU21623XXSP,2015-07-01 17:34:00,
2015-07-02 03:39:00,52.4,47.4,30.11,North,-9999,-999.9,0.0,83,0.00,,,0.00,WUHU21623XXSP,2015-07-01 17:39:00,
2015-07-02 03:44:00,52.2,47.5,30.11,North,-9999,-999.9,0.0,84,0.00,,,0.00,WUHU21623XXSP,2015-07-01 17:44:00,
2015-07-02 03:49:00,52.0,47.6,30.11,North,-9999,-999.9,0.0,85,0.00,,,0.00,WUHU21623XXSP,2015-07-01 17:49:00,
2015-07-02 03:54:00,52.0,47.6,30.11,North,-9999,-999.9,0.0,85,0.00,,,0.00,WUHU21623XXSP,2015-07-01 17:54:00,
2015-07-02 03:59:00,52.0,47.6,30.10,North,-9999,-999.9,0.0,85,0.00,,,0.00,WUHU21623XXSP,2015-07-01 17:59:00,
2015-07-02 04:04:00,52.0,47.6,30.10,North,-9999,-999.9,0.0,85,0.00,,,0.00,WUHU21623XXSP,2015-07-01 18:04:00,
2015-07-02 04:09:00,52.2,47.5,30.10,North,-9999,-999.9,0.0,84,0.00,,,0.00,WUHU21623XXSP,2015-07-01 18:09:00,
2015-07-02 04:14:00,52.2,47.2,30.11,North,-9999,-999.9,0.0,83,0.00,,,0.00,WUHU21623XXSP,2015-07-01 18:14:00,
2015-07-02 04:19:00,52.2,47.5,30.10,North,-9999,-999.9,0.0,84,0.00,,,0.00,WUHU21623XXSP,2015-07-01 18:19:00,
2015-07-02 04:24:00,52.0,47.3,30.10,North,-9999,-999.9,0.0,84,0.00,,,0.00,WUHU21623XXSP,2015-07-01 18:24:00,
2015-07-02 04:29:00,52.0,47.3,30.10,North,-9999,-999.9,0.0,84,0.00,,,0.00,WUHU21623XXSP,2015-07-01 18:29:00,
2015-07-02 04:34:00,52.0,47.3,30.11,North,-9999,-999.9,0.0,84,0.00,,,0.00,WUHU21623XXSP,2015-07-01 18:34:00,
2015-07-02 04:39:00,52.0,47.3,30.11,North,-9999,-999.9,0.0,84,0.00,,,0.00,WUHU21623XXSP,2015-07-01 18:39:00,
2015-07-02 04:44:00,52.2,47.2,30.11,North,-9999,-999.9,0.0,83,0.00,,,0.00,WUHU21623XXSP,2015-07-01 18:44:00,
2015-07-02 04:49:00,52.4,47.1,30.11,North,-9999,-999.9,0.0,82,0.00,,,0.00,WUHU21623XXSP,2015-07-01 18:49:00,
2015-07-02 04:54:00,52.5,47.1,30.12,North,-9999,-999.9,0.0,82,0.00,,,0.00,WUHU21623XXSP,2015-07-01 18:54:00,
2015-07-02 04:59:00,52.3,46.6,30.11,North,-9999,-999.9,0.0,81,0.00,,,0.00,WUHU21623XXSP,2015-07-01 18:59:00,
2015-07-02 05:04:00,52.1,46.5,30.12,North,-9999,-999.9,0.0,81,0.00,,,0.00,WUHU21623XXSP,2015-07-01 19:04:00,
2015-07-02 05:14:00,51.9,46.0,30.12,North,-9999,-999.9,0.0,80,0.00,,,0.00,WUHU21623XXSP,2015-07-01 19:14:00,
2015-07-02 05:19:00,51.8,45.5,30.12,North,-9999,-999.9,0.0,79,0.00,,,0.00,WUHU21623XXSP,2015-07-01 19:19:00,
2015-07-02 05:24:00,51.6,45.4,30.12,North,-9999,-999.9,0.0,79,0.00,,,0.00,WUHU21623XXSP,2015-07-01 19:24:00,
2015-07-02 05:29:00,51.4,45.2,30.12,North,-9999,-999.9,0.0,79,0.00,,,0.00,WUHU21623XXSP,2015-07-01 19:29:00,
2015-07-02 05:34:00,51.2,44.7,30.13,North,-9999,-999.9,0.0,78,0.00,,,0.00,WUHU21623XXSP,2015-07-01 19:34:00,
2015-07-02 05:39:00,51.3,44.7,30.12,North,-9999,-999.9,0.0,78,0.00,,,0.00,WUHU21623XXSP,2015-07-01 19:39:00,
2015-07-02 05:44:00,51.3,44.4,30.13,North,-9999,-999.9,0.0,77,0.00,,,0.00,WUHU21623XXSP,2015-07-01 19:44:00,
2015-07-02 05:49:00,51.3,44.0,30.13,North,-9999,-999.9,0.0,76,0.00,,,0.00,WUHU21623XXSP,2015-07-01 19:49:00,
2015-07-02 05:54:00,51.3,44.1,30.13,North,-9999,-999.9,0.0,76,0.00,,,0.00,WUHU21623XXSP,2015-07-01 19:54:00,
2015-07-02 05:59:00,51.3,44.1,30.13,North,-9999,-999.9,0.0,76,0.00,,,0.00,WUHU21623XXSP,2015-07-01 19:59:00,
2015-07-02 06:04:00,51.3,44.1,30.13,North,-9999,-999.9,0.0,76,0.00,,,0.00,WUHU21623XXSP,2015-07-01 20:04:00,
2015-07-02 06:09:00,51.1,44.2,30.13,North,-9999,-999.9,0.0,77,0.00,,,0.00,WUHU21623XXSP,2015-07-01 20:09:00,
2015-07-02 06:14:00,51.2,44.3,30.13,North,-9999,-999.9,0.0,77,0.00,,,0.00,WUHU21623XXSP,2015-07-01 20:14:00,
2015-07-02 06:19:00,51.1,44.2,30.12,North,-9999,-999.9,0.0,77,0.00,,,0.00,WUHU21623XXSP,2015-07-01 20:19:00,
2015-07-02 06:24:00,50.9,44.0,30.12,North,-9999,-999.9,0.0,77,0.00,,,0.00,WUHU21623XXSP,2015-07-01 20:24:00,
2015-07-02 06:29:00,50.7,43.8,30.12,North,-9999,-999.9,0.0,77,0.00,,,0.00,WUHU21623XXSP,2015-07-01 20:29:00,
2015-07-02 06:34:00,50.5,43.3,30.12,North,-9999,-999.9,0.0,76,0.00,,,0.00,WUHU21623XXSP,2015-07-01 20:34:00,
2015-07-02 06:39:00,50.3,43.1,30.13,North,-9999,-999.9,0.0,76,0.00,,,0.00,WUHU21623XXSP,2015-07-01 20:39:00,
2015-07-02 06:44:00,50.2,43.4,30.13,North,-9999,-999.9,0.0,77,0.00,,,0.00,WUHU21623XXSP,2015-07-01 20:44:00,
2015-07-02 06:49:00,50.3,43.1,30.13,North,-9999,-999.9,0.0,76,0.00,,,0.00,WUHU21623XXSP,2015-07-01 20:49:00,
2015-07-02 06:54:00,50.3,43.1,30.12,North,-9999,-999.9,0.0,76,0.00,,,0.00,WUHU21623XXSP,2015-07-01 20:54:00,
2015-07-02 06:59:00,50.1,42.6,30.13,North,-9999,-999.9,0.0,75,0.00,,,0.00,WUHU21623XXSP,2015-07-01 20:59:00,
2015-07-02 07:04:00,49.9,42.4,30.13,North,-9999,-999.9,0.0,75,0.00,,,0.00,WUHU21623XXSP,2015-07-01 21:04:00,
2015-07-02 07:09:00,49.7,41.9,30.13,North,-9999,-999.9,0.0,74,0.00,,,0.00,WUHU21623XXSP,2015-07-01 21:09:00,
2015-07-02 07:14:00,49.7,41.9,30.13,North,-9999,-999.9,0.0,74,0.00,,,0.00,WUHU21623XXSP,2015-07-01 21:14:00,
2015-07-02 07:19:00,49.6,41.7,30.13,North,-9999,-999.9,0.0,74,0.00,,,0.00,WUHU21623XXSP,2015-07-01 21:19:00,
2015-07-02 07:24:00,49.6,41.7,30.13,North,-9999,-999.9,0.0,74,0.00,,,0.00,WUHU21623XXSP,2015-07-01 21:24:00,
2015-07-02 07:29:00,49.5,41.3,30.13,North,-9999,-999.9,0.0,73,0.00,,,0.00,WUHU21623XXSP,2015-07-01 21:29:00,
2015-07-02 07:34:00,49.6,41.6,30.13,North,-9999,-999.9,0.0,74,0.00,,,0.00,WUHU21623XXSP,2015-07-01 21:34:00,
2015-07-02 07:39:00,49.3,41.3,30.13,North,-9999,-999.9,0.0,74,0.00,,,0.00,WUHU21623XXSP,2015-07-01 21:39:00,
2015-07-02 07:44:00,49.1,41.1,30.13,North,-9999,-999.9,0.0,74,0.00,,,0.00,WUHU21623XXSP,2015-07-01 21:44:00,
2015-07-02 07:49:00,49.1,41.1,30.13,North,-9999,-999.9,0.0,74,0.00,,,0.00,WUHU21623XXSP,2015-07-01 21:49:00,
2015-07-02 07:54:00,49.1,41.5,30.14,North,-9999,-999.9,0.0,75,0.00,,,0.00,WUHU21623XXSP,2015-07-01 21:54:00,
2015-07-02 07:59:00,49.1,41.5,30.14,North,-9999,-999.9,0.0,75,0.00,,,0.00,WUHU21623XXSP,2015-07-01 21:59:00,
2015-07-02 08:04:00,49.3,41.6,30.14,North,-9999,-999.9,0.0,75,0.00,,,0.00,WUHU21623XXSP,2015-07-01 22:04:00,
2015-07-02 08:09:00,49.5,41.8,30.14,North,-9999,-999.9,0.0,75,0.00,,,0.00,WUHU21623XXSP,2015-07-01 22:09:00,
2015-07-02 08:14:00,49.8,41.8,30.15,North,-9999,-999.9,0.0,74,0.00,,,0.00,WUHU21623XXSP,2015-07-01 22:14:00,
2015-07-02 08:19:00,50.2,42.2,30.15,North,-9999,-999.9,0.0,74,0.00,,,0.00,WUHU21623XXSP,2015-07-01 22:19:00,
2015-07-02 08:24:00,50.2,42.2,30.16,North,-9999,-999.9,0.0,74,0.00,,,0.00,WUHU21623XXSP,2015-07-01 22:24:00,
2015-07-02 08:29:00,50.2,42.9,30.15,North,-9999,-999.9,0.0,77,0.00,,,0.00,WUHU21623XXSP,2015-07-01 22:29:00,
2015-07-02 08:34:00,49.6,43.0,30.15,North,-9999,-999.9,0.0,78,0.00,,,0.00,WUHU21623XXSP,2015-07-01 22:34:00,
2015-07-02 08:39:00,49.3,43.0,30.15,North,-9999,-999.9,0.0,79,0.00,,,0.00,WUHU21623XXSP,2015-07-01 22:39:00,
2015-07-02 08:44:00,49.3,43.0,30.15,North,-9999,-999.9,0.0,79,0.00,,,0.00,WUHU21623XXSP,2015-07-01 22:44:00,
2015-07-02 08:49:00,49.3,43.3,30.15,North,-9999,-999.9,0.0,80,0.00,,,0.00,WUHU21623XXSP,2015-07-01 22:49:00,
2015-07-02 08:54:00,49.6,43.7,30.16,North,-9999,-999.9,0.0,80,0.00,,,0.00,WUHU21623XXSP,2015-07-01 22:54:00,
2015-07-02 08:59:00,49.8,43.9,30.16,North,-9999,-999.9,0.0,80,0.00,,,0.00,WUHU21623XXSP,2015-07-01 22:59:00,
2015-07-02 09:04:00,50.4,44.1,30.16,North,-9999,-999.9,0.0,79,0.00,,,0.00,WUHU21623XXSP,2015-07-01 23:04:00,
2015-07-02 09:09:00,50.5,43.9,30.16,North,-9999,-999.9,0.0,78,0.00,,,0.00,WUHU21623XXSP,2015-07-01 23:09:00,
2015-07-02 09:14:00,50.2,43.6,30.18,North,-9999,-999.9,0.0,78,0.00,,,0.00,WUHU21623XXSP,2015-07-01 23:14:00,
2015-07-02 09:19:00,49.8,43.5,30.19,North,-9999,-999.9,0.0,79,0.00,,,0.00,WUHU21623XXSP,2015-07-01 23:19:00,
2015-07-02 09:24:00,49.3,43.6,30.19,North,-9999,-999.9,0.0,81,0.00,,,0.00,WUHU21623XXSP,2015-07-01 23:24:00,
2015-07-02 09:29:00,48.7,43.4,30.19,North,-9999,-999.9,0.0,82,0.00,,,0.00,WUHU21623XXSP,2015-07-01 23:29:00,
2015-07-02 09:34:00,48.0,43.4,30.19,North,-9999,-999.9,0.0,84,0.00,,,0.00,WUHU21623XXSP,2015-07-01 23:34:00,
2015-07-02 09:39:00,48.0,43.4,30.19,North,-9999,-999.9,0.0,84,0.02,,,0.02,WUHU21623XXSP,2015-07-01 23:39:00,
2015-07-02 09:44:00,48.0,43.7,30.20,North,-9999,-999.9,0.0,85,0.02,,,0.02,WUHU21623XXSP,2015-07-01 23:44:00,
2015-07-02 09:49:00,48.4,44.0,30.21,North,-9999,-999.9,0.0,85,0.02,,,0.02,WUHU21623XXSP,2015-07-01 23:49:00,
2015-07-02 09:54:00,48.4,44.0,30.21,North,-9999,-999.9,0.0,85,0.02,,,0.02,WUHU21623XXSP,2015-07-01 23:54:00,
2015-07-02 09:59:00,48.9,44.2,30.21,North,-9999,-999.9,0.0,84,0.02,,,0.02,WUHU21623XXSP,2015-07-01 23:59:00,
2015-07-02 10:04:00,49.5,44.4,30.21,North,-9999,-999.9,0.0,83,0.02,,,0.02,WUHU21623XXSP,2015-07-02 00:04:00,
2015-07-02 10:09:00,49.3,44.0,30.20,North,-9999,-999.9,0.0,82,0.02,,,0.02,WUHU21623XXSP,2015-07-02 00:09:00,
2015-07-02 10:14:00,49.8,44.2,30.21,North,-9999,-999.9,0.0,81,0.02,,,0.02,WUHU21623XXSP,2015-07-02 00:14:00,
2015-07-02 10:19:00,50.2,43.9,30.21,North,-9999,-999.9,0.0,79,0.02,,,0.02,WUHU21623XXSP,2015-07-02 00:19:00,
2015-07-02 10:24:00,50.7,44.4,30.22,North,-9999,-999.9,0.0,79,0.02,,,0.02,WUHU21623XXSP,2015-07-02 00:24:00,
2015-07-02 10:29:00,51.1,44.5,30.21,North,-9999,-999.9,0.0,78,0.02,,,0.02,WUHU21623XXSP,2015-07-02 00:29:00,
2015-07-02 10:34:00,51.6,44.3,30.21,North,-9999,-999.9,0.0,76,0.02,,,0.02,WUHU21623XXSP,2015-07-02 00:34:00,
2015-07-02 10:39:00,52.0,44.3,30.22,North,-9999,-999.9,0.0,75,0.00,,,0.02,WUHU21623XXSP,2015-07-02 00:39:00,